TimePST,TemperatureF,Dew PointF,Humidity,Sea Level PressureIn,VisibilityMPH,Wind Direction,Wind SpeedMPH,Gust SpeedMPH,PrecipitationIn,Events,Conditions,WindDirDegrees,DateUTC
12:53 AM,57.9,37.0,46,29.80,10.0,NW,8.1,-,N/A,,Clear,320,2013-03-08 08:53:00
1:53 AM,59.0,37.0,44,29.79,10.0,NNW,9.2,-,N/A,,Mostly Cloudy,330,2013-03-08 09:53:00
2:39 AM,57.2,44.6,63,29.79,10.0,West,13.8,-,0.00,Rain,Light Rain,260,2013-03-08 10:39:00
2:53 AM,55.0,46.9,74,29.79,10.0,West,15.0,-,0.00,Rain,Light Rain,270,2013-03-08 10:53:00
3:53 AM,53.1,46.9,80,29.78,10.0,WSW,8.1,-,0.03,Rain,Light Rain,250,2013-03-08 11:53:00
4:53 AM,51.1,46.9,86,29.78,10.0,Calm,Calm,-,N/A,,Scattered Clouds,0,2013-03-08 12:53:00
5:53 AM,50.0,46.0,86,29.77,10.0,West,8.1,-,N/A,,Clear,260,2013-03-08 13:53:00
6:53 AM,53.1,46.0,77,29.81,10.0,SSW,5.8,-,0.00,,Overcast,200,2013-03-08 14:53:00
7:53 AM,54.0,42.1,64,29.84,10.0,West,16.1,26.5,0.00,Rain,Light Rain,260,2013-03-08 15:53:00
8:53 AM,55.9,39.0,53,29.85,10.0,SW,13.8,20.7,0.00,,Partly Cloudy,220,2013-03-08 16:53:00
9:53 AM,60.1,37.9,44,29.86,10.0,West,15.0,-,N/A,,Clear,270,2013-03-08 17:53:00
10:53 AM,63.0,37.0,38,29.84,10.0,West,21.9,29.9,N/A,,Clear,260,2013-03-08 18:53:00
11:53 AM,63.0,33.1,33,29.83,10.0,WSW,21.9,29.9,N/A,,Clear,250,2013-03-08 19:53:00
12:53 PM,62.1,35.1,37,29.81,10.0,West,29.9,41.4,N/A,,Clear,280,2013-03-08 20:53:00
1:53 PM,57.9,35.1,42,29.83,10.0,West,19.6,27.6,N/A,,Scattered Clouds,270,2013-03-08 21:53:00
2:53 PM,57.9,35.1,42,29.83,10.0,West,16.1,25.3,N/A,,Clear,260,2013-03-08 22:53:00
3:53 PM,59.0,37.0,44,29.84,10.0,West,17.3,28.8,N/A,,Clear,270,2013-03-08 23:53:00
4:53 PM,57.0,36.0,45,29.84,10.0,West,23.0,28.8,N/A,,Partly Cloudy,270,2013-03-09 00:53:00
5:53 PM,54.0,36.0,51,29.87,10.0,WSW,17.3,23.0,N/A,,Clear,250,2013-03-09 01:53:00
6:53 PM,53.1,35.1,50,29.89,10.0,West,18.4,24.2,N/A,,Clear,260,2013-03-09 02:53:00
7:53 PM,53.1,36.0,52,29.94,10.0,WSW,15.0,-,N/A,,Clear,250,2013-03-09 03:53:00
8:53 PM,53.1,36.0,52,29.97,10.0,WSW,15.0,-,N/A,,Partly Cloudy,250,2013-03-09 04:53:00
9:53 PM,53.1,34.0,48,29.97,10.0,West,18.4,27.6,N/A,,Clear,260,2013-03-09 05:53:00
10:53 PM,52.0,35.1,53,29.97,10.0,West,16.1,-,N/A,,Clear,260,2013-03-09 06:53:00
11:53 PM,51.1,37.0,59,29.98,10.0,West,9.2,-,N/A,,Clear,260,2013-03-09 07:53:00